Regional Weather Roundup
Issued by NWS

Home | Current Version | Previous Version | Text Only | Print | Product List | Glossary On
Versions: 1 2 3 4 5 6 7 8 9 10 11 12 13 14 15 16 17 18 19 20 21 22 23 24 25 26 27 28 29 30 31 32 33 34 35 36 37 38 39 40 41 42 43 44 45 46 47 48 49 50
000
ASUS44 KJAN 261920
RWRMS

MISSISSIPPI HOURLY WEATHER ROUNDUP
NATIONAL WEATHER SERVICE JACKSON MS
200 PM CDT MON SEP 26 2016

NOTE: "FAIR: INDICATES FEW OR NO CLOUDS BELOW 12,000 FEET WITH NO
SIGNIFICANT WEATHER AND/OR OBSTRUCTIONS TO VISIBILITY.

MSZ001>002-007>008-010>013-018>021-025>028-034>036-262000-
NORTHWEST MISSISSIPPI

CITY           SKY/WX    TMP DP  RH WIND       PRES   REMARKS
BATESVILLE     FAIR      76  58  53 NE6       30.08F
CLARKSDALE     SUNNY     75  61  60 N12       30.09F
CLEVELAND      FAIR      74  61  63 N21G28    30.07F
GREENWOOD      PTSUNNY   85  68  56 N10       30.02F
GREENVILLE     PTSUNNY   79  61  53 N14G23    30.07F
OLIVE BRANCH   PTSUNNY  N/A N/A N/A NE6       30.09F
OXFORD         FAIR      81  61  50 N10G21    30.08F
TUNICA         CLOUDY    73  57  56 N10       30.10F
WINONA         FAIR      86  70  59 NW8       30.01F HX  90
$$

MSZ003>006-009-014>017-022>024-029>033-037>039-262000-
NORTHEAST MISSISSIPPI

CITY           SKY/WX    TMP DP  RH WIND       PRES   REMARKS
COLUMBUS AFB   SUNNY     92  69  47 W7        29.96F HX  97
CORINTH        FAIR      81  61  50 N10       30.06F
GOLDN TRIANGLE SUNNY     95  66  38 N9        29.98F HX  98
STARKVILLE     FAIR      90  66  45 N6        29.99F HX  92
TUPELO         SUNNY     85  65  51 N13G20    30.02F
$$

MSZ040-058-262000-
CENTRAL MISSISSIPPI

CITY           SKY/WX    TMP DP  RH WIND       PRES   REMARKS
JACKSON INTL   MOSUNNY   91  68  46 N10       29.99F HX  95
JACKSON HAWKNS MOSUNNY   88  71  57 NW7       30.00F HX  94
MADISON        FAIR      86  70  58 W10G16    29.99F HX  90
MERIDIAN KEY   MOSUNNY   95  66  38 VRB3      29.96F HX  98
MERIDIAN NAS   MOSUNNY   92  64  39 E5        29.96F HX  93
VICKSBURG VKS  CLOUDY    82  72  69 N8G15     30.01F
$$

MSZ059>079-262000-
SOUTH MISSISSIPPI

CITY           SKY/WX    TMP DP  RH WIND       PRES   REMARKS
BROOKHAVEN     FAIR     N/A N/A N/A NW3       30.00F
HATTIESBURG    SUNNY     90  70  51 VRB3      29.98F HX  95
LAUREL         FAIR      90  69  50 NW5       29.99F HX  94
MCCOMB         CLOUDY    88  69  53 N7        29.99F HX  92
NATCHEZ        MOSUNNY   90  72  55 N7        29.99F HX  96
PINE BELT      MOSUNNY   91  70  49 W6        29.98F HX  97
$$

MSZ080>082-262000-
COASTAL MISSISSIPPI

CITY           SKY/WX    TMP DP  RH WIND       PRES   REMARKS
BAY ST LOUIS   MOSUNNY   90  63  40 CALM      29.97F HX  90
BILOXI         SUNNY     91  73  55 SW8       29.95F HX  98
PASCAGOULA     PTSUNNY   90  73  57 CALM      29.96F HX  98
GULFPORT       MOSUNNY   91  69  48 CALM      29.95F HX  96
$$

LAZ007>009-015>016-023>026-262000-
NORTHEAST LOUISIANA

CITY           SKY/WX    TMP DP  RH WIND       PRES   REMARKS
BASTROP        FAIR      81  65  59 N3        30.07F
TALLULAH/VBURG CLOUDY    83  70  64 N10G17    30.02F
$$



USA.gov is the U.S. government's official web portal to all federal, state and local government web resources and services.